Regional Weather Roundup
Issued by NWS Wakefield, VA

Home | Current Version | Previous Version | Graphics & Text | Print | Product List | Glossary On
Versions: 1 2 3 4 5 6 7 8 9 10 11 12 13 14 15 16 17 18 19 20 21 22 23 24 25 26 27 28 29 30 31 32 33 34 35 36 37 38 39 40 41 42 43 44 45 46 47 48 49 50
000
ASUS41 KAKQ 280510
RWRAKQ

REGIONAL WEATHER ROUNDUP
NATIONAL WEATHER SERVICE WAKEFIELD VA
1200 AM EST SAT FEB 28 2015

Note: "fair" indicates few or no clouds below 12,000 feet with no
significant weather and/or obstructions to visibility. * = Denotes
station may not report precipitation (e.g., rain,snow,etc.),
thunder or fog.

VAZ042-051-052>054-056-280600-
NORTHERN VIRGINIA

CITY           SKY/WX    TMP DP  RH WIND       PRES   REMARKS
WASH NATIONAL  CLEAR     25   1  35 N10G20    30.69R WCI  15
DULLES         CLEAR     20   1  43 N12       30.66R WCI   8
FORT BELVOIR   CLEAR     23   1  38 NW7       30.68R
QUANTICO       CLEAR     24   4  42 NE13      30.70R WCI  12
FREDERICKSBRG* CLEAR     26   6  42 N7        30.67R
STAFFORD*      PTCLDY    23   2  39 N8        30.71R
WARRENTON      CLEAR     21  10  60 NE7       30.65R
CULPEPER*      CLEAR     21   7  53 NE3       30.65R
MANASSAS*      CLEAR     19   7  58 N7        30.68R
LEESBURG*      CLEAR     21   5  49 N3        30.67R
WINCHESTER     CLEAR     21  -4  33 NW10      30.64R WCI  10
FRONT ROYAL*   FAIR      19   3  49 N3        30.63R
LURAY*         FAIR      21   9  58 N3        30.61S
$$

VAZ048-049-060>072-079>083-280600-
CENTRAL AND SOUTH CENTRAL VIRGINIA

CITY           SKY/WX    TMP DP  RH WIND       PRES   REMARKS
RICHMOND       MOCLDY    26  18  71 CALM      30.64R
CHESTERFIELD*  FAIR      27  10  50 CALM      30.64R
PETERSBURG*    CLEAR     24  22  91 N5        30.63R
HANOVER        CLOUDY    27  12  53 CALM      30.66R
TAPPAHANNOCK*  CLEAR     19  16  87 CALM      30.66R FOG
QUINTON*       CLOUDY    22  19  87 CALM      30.64R
CHARLOTTSVILLE CLEAR     23   7  50 NE6       30.61R
GORDONSVILLE*  FAIR      22   6  52 NE5       30.63R
ORANGE*        PTCLDY    23   9  54 N5        30.65R
LOUISA*        MOCLDY    25   7  46 NE9       30.62R
BUMPASS*       CLOUDY    26   6  44 CALM      30.64R
FARMVILLE*     CLEAR     28  18  68 N5        30.60R
CREWE*         FAIR      27  20  75 CALM      30.61R
FORT PICKETT*  FAIR      26  18  70 NE6       30.60R
CHASE CITY*    MOCLDY    29  27  90 CALM      30.59R
CLARKSVILLE*   MOCLDY    30  27  86 E3        30.58R
SOUTH HILL*    FAIR      26  23  89 CALM      30.65R
LAWRENCEVILLE* FAIR      26  24  90 CALM      30.60R
EMPORIA*       PTCLDY    27  25  93 CALM      30.63R
$$

VAZ088>098-280600-
SOUTHEAST VIRGINIA

CITY           SKY/WX    TMP DP  RH WIND       PRES   REMARKS
NORFOLK        CLEAR     30  22  72 NE15      30.60R WCI  19
VIRGINIA BEACH CLEAR     30  21  69 NE10      30.60R WCI  21
NORFOLK NAVAL  CLEAR     31  20  63 NE15      30.62R WCI  20
WEST POINT*    PTCLDY    21  17  87 N3        30.66R
SALUDA*        FAIR      23  16  74 CALM      30.64R
NEWPORT NEWS   CLEAR     28  20  71 NE7       30.62R
LANGLEY AFB    CLEAR     28  18  68 NE10      30.62R WCI  18
FORT EUSTIS    MOCLDY    26  26  98 NE3       30.61R
WILLIAMSBURG*  PTCLDY    27  25  93 NE3       30.64R
HR EXEC AP*    FAIR      27  19  74 NE3       30.63S
FRANKLIN*      CLEAR     26  22  87 CALM      30.63R
WAKEFIELD      MOCLDY    26  22  84 CALM      30.62R
$$

VAZ020-022-025-037-045-280600-
WEST CENTRAL AND SOUTHWEST VIRGINIA

CITY           SKY/WX    TMP DP  RH WIND       PRES   REMARKS
STAUNTON*      CLEAR     19   4  50 N8        30.60R
WAYNESBORO*    FAIR      17   3  54 NW3       30.56R
HOT SPRINGS VA FAIR       9   2  72 NW8       30.37R
LYNCHBURG      FAIR      24   9  52 N6        30.58R
DANVILLE       CLEAR     28   9  44 N8        30.58S
SOUTH BOSTON*  MOCLDY    28  10  46 N6        30.59S
MARTINSVILLE   CLEAR     27  12  53 N5        30.60R
ROANOKE        CLEAR     22   5  48 N7        30.60R
BLACKSBURG     FAIR      14   3  62 CALM      30.54R
DUBLIN*        CLEAR     18   8  63 CALM      30.52R
MARION*        PTCLDY    12   7  81 CALM      30.49S
HILLSVILLE*    CLEAR     16   8  71 NE5       30.45S
RICHLANDS*     FAIR      14   5  68 E6        30.46F
WISE*          CLEAR     14   7  73 NE5       30.47F
ABINGDON*      CLEAR     16  11  80 CALM      30.49S
$$

MDZ021>025-VAZ099-100-280600-
SOUTHERN MARYLAND AND THE DELMARVA PENINSULA

CITY           SKY/WX    TMP DP  RH WIND       PRES   REMARKS
PATUXENT RIVER CLEAR     25   8  48 N13       30.65R WCI  14
BAY BRIDGE APT   N/A     23   5  46 N13G21    30.65F WCI  11
LEONARDTOWN    CLEAR     27   5  39 CALM      30.66R
DOVER          CLEAR     21   9  59 NW12      30.63R WCI   9
GEORGETOWN     CLEAR     22   8  55 CALM      30.63R
EASTON         CLEAR     25  11  56 N6        30.68R
CAMBRIDGE      CLEAR     27  12  54 N3        30.64R
SALISBURY      CLEAR     18  11  74 CALM      30.63R
OCEAN CITY     FAIR      14  10  84 NW5       30.63R
WALLOPS ISLAND CLEAR     21  16  81 N5        30.63S
ACCOMACK*      CLEAR     21  18  86 NE6       30.63R
$$

NCZ012>017-030>032-280600-
NORTH CENTRAL AND EASTERN NORTH CAROLINA

CITY           SKY/WX    TMP DP  RH WIND       PRES   REMARKS
ROANOKE RAPIDS FAIR      28  27  93 CALM      30.61R
RALEIGH        PTCLDY    32  15  49 N6        30.57R
ELIZABETH CITY CLEAR     30  26  85 NE9       30.60R
AHOSKIE*       CLEAR     27  23  85 CALM      30.62R
EDENTON*       CLEAR     29  26  86 N3        30.60R
CURRITUCK*     CLEAR     32  24  73 NE8       30.60R
KILL DEVIL HLS CLEAR     34  30  86 N9        30.56R
MANTEO         CLEAR     34  30  86 N12       30.57S
CAPE HATTERAS  PTCLDY    36  33  89 VRB6G18   30.54R
TARBORO*       FAIR      29  26  87 NE3       30.61R
GOLDSBORO      CLEAR     32  32  99 NE7       30.55R
WASHINGTON     CLEAR     29  26  90 NE7       30.59R
GREENVILLE     CLEAR     30  27  86 NE6       30.58R
NEW BERN       CLEAR     31  26  82 NE8       30.58R
WILMINGTON     MOCLDY    37  31  78 NE8       30.52R
$$

VAZ048-280600-
ELSEWHERE

CITY           SKY/WX    TMP DP  RH WIND       PRES   REMARKS
HARRISBURG PA  CLEAR     18   0  45 NW12      30.66R WCI   5
BALTIMORE      PTCLDY    20   1  43 NW9       30.66R
ANNAPOLIS      CLEAR     24   6  46 N14       30.66R WCI  12
ANDREWS AFB    CLEAR     20   4  50 N8        30.65R
PHILADELPHIA   CLEAR     23   6  48 NW10      30.65R WCI  12
HENDERSON NC   PTCLDY    27  20  75 CALM      30.58R
GREENSBORO     CLEAR     29  11  47 NE12      30.54R WCI  19
ROCKY MOUNT    CLEAR     27  24  89 NE6       30.59R
$$

VAZ100-280600-
MARINE

STATION/POSITION TIME  TEMP    WIND        PRES    WAVE   SWELL
                       AIR SEA DIR/SP/G            HT/PER HT/PER
                 (UTC) (F)     (DEG/KT/KT) (MB)    (FT/S) (FT/S)
BRANDYWINE LGT   0500   27 29  360/ 17/ 20 1036.9F
CAPE MAY NJ      0500   25 32  350/  6/  9 1036.5F
LEWES DE         0500   26 30  360/  7/ 10 1037.1R
15NM E FENWICK I 0500   28 36              1036.2R   5/11
OCEAN-CITY-INLET 0500   26 33  360/  7/  9 1036.8R
WACHAPREAGUE VA  0500   23 33  360/  5/  7 1037.1R
THOMAS POINT MD  0500   24 31  330/ 14/ 16 1039.2R
COVE POINT MD    0500   26     360/ 18/ 22 1037.5R
SOLOMONS ISLAND  0500      33                N/A
BISHOPS HEAD MD  0500   24 31  360/  4/  7 1036.8S
CAMBRIDGE MD     0500   24 32  340/  7/  9 1037.4F
LEWISETTA VA     0500   27 32              1037.7R
RAPPAHANNOCK LGT 0500           20/ 15/ 16 1037.5R
STINGRAY PT      0500   29      50/ 14/ 16   N/A
YORK RVR RNG VA  0500   30      50/ 13/ 15 1036.3S
YORKTOWN VA      0500   27 33   40/  7/  9 1036.9R
DOMINION TERM VA 0500   29      30/  2/  5 1036.7S
KIPTOPEKE VA     0500      37   30/  4/  6   N/A
CHES BAY BRIDGE  0500   30 32   30/ 12/ 17 1035.9F
CAPE HENRY VA    0500   30      10/ 15/ 16 1034.9F
CHESAPEAKE LGHT  0400   31      30/ 19/ 20 1035.9R
WILLOUBY STN VA  0500   30      40/ 14/ 15 1037.0S
S CRANEY ISL VA  0500           30/ 10/ 13 1036.4S
CAPE HENRY BUOY  0500      35                N/A     4/10   2/11
1ST LANDING BUOY 0500   31      30/ 14/ 16 1036.0F
OFFSHORE WE BUOY 0500      37                N/A     5/11   3/11
64NM E OF VA BCH 0500   39 58   20/ 17/ 21 1034.4R   6/11   5/11
DUCK PIER NC     0500   34 35   30/ 17/ 20 1034.5S
44056 DUCK FRF   0500      35                N/A     5/11   2/11
OREGON INLET NC  0500   35 38  360/ 10/ 14 1034.6R
HATTERAS NC      0500   37 41   20/ 17/ 20 1034.0R
CAPE LOOKOUT NC  0400   36      20/ 15/ 18 1033.5R
$$



USA.gov is the U.S. government's official web portal to all federal, state and local government web resources and services.